SCP
0 0 0 0 0 0 0 0 0 0 0 0 1 1 2 2 1 1 1 1 1 1 1 1 0 0 0 0 0 0 0 0 0 0 0 0 0 0 0 0 0 0 0
0 0 0 0 0 0 0 0 0 0 0 0 1 2 2 2 1 1 1 1 1 1 1 1 0 0 0 0 0 0 0 0 0 0 0 0 0 0 0 0 0 0 0
0 0 0 0 0 0 0 0 0 0 0 1 1 2 2 2 1 1 1 1 1 1 1 1 0 0 0 0 0 0 0 0 0 0 0 0 0 0 0 0 0 0 0
0 0 0 0 0 0 0 0 0 0 0 0 1 1 1 1 1 1 1 1 1 1 1 1 0 0 0 0 0 0 0 0 0 0 0 0 0 0 0 0 0 0 0
0 0 0 0 0 0 0 0 0 0 0 0 0 0 1 1 0 0 1 1 1 1 1 0 0 0 0 0 0 0 0 0 0 0 0 0 0 0 0 0 0 0 0
0 0 0 0 0 0 0 0 0 0 0 0 0 0 0 0 0 0 1 1 1 1 1 0 0 0 0 0 0 0 0 0 0 0 0 0 0 0 0 0 0 0 0
0 0 0 0 0 0 0 0 0 0 0 0 0 0 0 0 0 0 0 1 1 1 0 0 0 0 0 0 0 0 0 0 0 0 0 0 0 0 0 0 0 0 0
0 0 0 0 0 0 0 0 0 0 0 0 0 0 0 0 0 0 0 1 1 0 0 0 0 0 0 0 0 0 0 0 0 0 0 0 0 0 0 0 0 0 0
0 0 0 0 0 0 0 0 0 0 0 0 0 0 0 0 0 0 0 0 0 0 0 0 0 0 0 0 0 0 0 0 0 0 0 0 0 0 0 0 0 0 0
0 0 0 0 0 0 0 0 0 0 0 0 0 0 0 0 0 0 0 0 0 0 0 0 0 0 0 0 0 0 0 0 0 0 0 0 0 0 0 0 0 0 0
0 0 0 0 0 0 0 0 0 0 0 0 0 0 0 0 0 0 0 0 0 0 0 0 0 0 0 0 0 0 0 0 0 0 0 0 0 0 0 0 0 0 0
0 0 0 0 0 0 0 0 0 0 0 0 0 0 0 0 0 0 0 0 0 0 0 0 0 0 0 0 0 0 0 0 0 0 0 0 0 0 0 0 0 0 0
0 0 0 0 0 0 0 0 0 0 0 0 0 0 0 0 0 0 0 0 0 0 0 0 0 0 0 0 0 0 0 0 0 0 0 0 0 0 0 0 0 0 0
0 0 0 0 0 0 0 0 0 0 0 0 0 0 0 0 0 0 0 0 0 0 0 0 0 0 0 0 0 0 0 0 0 0 0 0 0 0 0 0 0 0 0
0 0 0 0 0 0 0 0 0 0 0 0 0 0 0 0 0 0 0 0 0 0 0 0 0 0 0 0 0 0 0 0 0 0 0 0 0 0 0 0 0 0 0
0 0 0 0 0 0 0 0 0 0 0 0 0 0 0 0 0 0 0 0 0 0 0 0 0 0 0 0 0 0 0 0 0 0 0 0 0 0 0 0 0 0 0
0 0 0 0 0 0 0 0 0 0 0 0 0 0 0 0 0 0 0 0 0 0 0 0 0 0 0 0 0 0 0 0 0 0 0 0 0 0 0 0 0 0 0
0 0 0 0 0 0 0 0 0 0 0 0 0 0 0 0 0 0 0 0 0 0 0 0 0 0 0 0 0 0 0 0 0 0 0 0 0 0 0 0 0 0 0
0 0 0 0 0 0 0 0 0 0 0 0 0 0 0 0 0 0 0 0 0 0 0 0 0 0 0 0 0 0 0 0 0 0 0 0 0 0 0 0 0 0 0
0 0 0 0 0 0 0 0 0 0 0 0 0 0 0 0 0 0 0 0 0 0 0 0 0 0 0 0 0 0 0 0 0 0 0 0 0 0 0 0 0 0 0
0 0 0 0 0 0 0 0 0 0 0 0 0 0 0 0 0 0 0 0 0 0 0 0 0 0 0 0 0 0 0 0 0 0 0 0 0 0 0 0 0 0 0
0 0 0 0 0 0 0 0 0 0 0 0 0 0 0 0 0 0 0 0 0 0 0 0 0 0 0 0 0 0 0 0 0 0 0 0 0 0 0 0 0 0 0
0 0 0 0 0 0 0 0 0 0 0 0 0 0 0 0 0 0 0 0 0 0 0 0 0 0 0 0 0 0 0 0 0 0 0 0 0 0 0 0 0 0 0
0 0 0 0 0 0 0 0 0 0 0 0 0 0 0 0 0 0 0 0 0 0 0 0 0 0 0 0 0 0 0 0 0 0 0 0 0 0 0 0 0 0 0
0 0 0 0 0 0 0 0 0 0 0 0 0 0 0 0 0 0 0 0 0 0 0 0 0 0 0 0 0 0 0 0 0 0 0 0 0 0 0 0 0 0 0
0 0 0 0 0 0 0 0 0 0 0 0 0 0 0 0 0 0 0 0 0 0 0 0 0 0 0 0 0 0 0 0 0 0 0 0 0 0 0 0 0 0 0
Wind_Speed
1 0 1 0 0 0 0 0 0 1 1 1 1 1 1 1 1 1 1 1 1 1 1 2 2 2 2 2 2 2 2 2 4 3 2 2 2 3 3 3 3 4 4
1 0 1 0 1 0 0 0 0 0 0 1 1 1 1 1 1 1 2 1 2 2 2 2 3 2 2 2 2 3 3 3 4 5 3 2 3 3 3 3 4 3 4
1 0 0 0 0 0 1 1 0 0 0 1 1 1 1 1 2 2 2 2 2 3 3 3 3 3 3 3 3 3 3 3 3 3 4 2 2 2 3 3 3 3 4
1 1 1 1 1 1 1 1 1 1 1 1 1 2 2 2 2 2 2 2 2 3 3 3 4 4 4 4 3 3 3 3 3 3 3 3 2 2 2 3 4 3 4
1 1 1 1 1 1 1 1 1 1 1 1 1 2 2 2 2 3 3 3 3 3 3 3 4 4 5 5 4 3 3 3 3 3 4 3 3 2 3 3 4 4 4
1 1 1 1 1 1 1 1 1 2 2 2 2 2 2 2 3 4 4 3 3 4 4 4 4 4 5 7 7 6 6 5 5 4 4 5 5 4 3 3 4 4 5
1 1 1 1 1 1 1 1 1 2 2 2 2 2 3 3 4 5 5 3 3 4 4 4 3 3 4 4 5 7 6 7 7 5 6 6 5 4 4 5 5 5 6
1 1 1 1 2 2 2 2 2 2 2 2 3 3 3 3 4 4 4 3 3 4 4 4 4 4 4 4 4 4 5 5 6 5 5 6 5 4 5 6 6 6 6
2 2 2 2 2 3 3 3 2 2 3 3 3 3 3 4 5 5 4 3 3 4 4 4 4 4 6 6 4 4 5 4 5 7 8 7 7 7 5 3 3 3 6
3 3 3 2 3 3 3 3 2 2 3 3 3 3 4 4 6 6 5 3 3 4 3 4 5 6 7 7 5 5 6 5 4 4 5 6 5 5 6 4 4 4 4
2 2 2 2 2 3 2 2 2 2 2 3 3 4 4 4 6 6 6 3 4 4 4 3 4 7 8 8 7 5 7 6 4 3 4 3 3 3 3 3 3 4 5
1 1 2 2 2 1 1 2 2 2 3 3 3 4 3 3 5 6 7 7 6 4 4 3 4 7 8 8 6 7 7 5 2 2 3 4 3 3 3 3 3 4 5
1 1 2 2 2 1 1 2 2 2 2 3 3 3 3 3 4 6 7 8 8 5 4 6 7 8 8 6 7 8 5 3 2 3 4 4 4 3 3 2 3 3 5
1 2 2 1 2 1 1 1 2 2 2 3 3 4 4 3 3 3 3 3 5 5 4 4 7 7 6 5 4 4 3 3 3 4 4 3 3 2 2 2 3 3 4
1 2 2 2 2 1 2 2 3 3 4 4 4 4 4 4 5 7 5 4 3 4 3 2 2 2 2 3 2 3 2 2 3 3 3 3 3 3 3 3 3 3 4
1 1 1 1 1 2 2 3 5 5 7 8 8 6 5 7 9 9 9 8 8 6 3 2 3 3 4 4 3 3 3 3 3 3 3 4 4 4 4 3 3 4 5
2 2 1 1 2 2 2 2 3 5 6 7 8 8 8 8 8 9 8 8 7 5 2 3 4 4 4 4 4 4 4 3 3 3 4 4 3 3 3 4 3 4 5
2 2 2 2 2 2 2 3 3 3 4 4 6 8 8 8 8 8 7 5 3 3 3 4 4 4 4 4 4 4 4 3 3 3 4 4 4 4 4 4 4 5 5
1 1 1 1 2 2 2 2 3 3 3 4 4 5 5 6 7 7 5 2 3 3 3 4 4 4 4 4 4 4 4 4 4 4 4 4 4 4 5 5 5 6 6
1 2 2 1 2 2 2 2 3 3 3 3 4 4 2 2 2 3 2 2 3 4 4 4 4 4 4 4 3 3 4 4 4 4 4 4 4 4 5 6 5 5 5
1 1 1 2 2 2 2 2 3 3 3 4 4 5 6 3 3 3 3 3 3 4 4 4 4 4 3 3 3 4 4 4 4 4 4 4 4 4 5 5 5 5 5
1 1 1 1 2 2 2 3 3 3 4 4 4 5 7 3 3 3 3 3 3 3 3 3 3 3 3 3 4 4 5 5 5 5 5 4 4 5 5 5 5 5 5
1 1 1 2 2 2 3 3 3 3 4 4 4 4 3 3 3 4 4 4 3 3 3 3 4 4 3 3 4 5 6 6 5 5 5 5 5 5 5 5 6 6 6
0 1 2 2 2 2 3 3 3 4 4 4 4 4 4 4 4 5 5 4 4 4 3 3 4 5 6 5 4 5 5 6 6 5 7 6 6 5 5 5 6 7 6
1 1 1 2 2 2 3 3 4 4 4 4 4 4 4 4 4 5 4 4 4 5 5 5 4 5 6 7 7 6 8 9 8 6 6 6 6 6 6 6 6 6 6
1 1 2 2 2 2 3 3 4 4 4 4 4 4 4 5 5 5 5 4 4 5 5 5 6 6 7 7 8 9 10 10 10 9 6 5 6 6 6 6 6 6 6
Wind_Direction
25 95 96 90 73 64 66 24 37 147 151 151 159 160 175 203 203 198 238 220 210 229 232 224 239 242 242 246 243 245 251 247 259 275 276 280 262 265 281 273 267 259 261
324 165 146 130 109 106 356 339 7 22 149 177 173 177 194 208 210 208 221 226 224 233 242 244 249 240 242 252 250 250 253 250 249 263 272 276 266 259 263 269 276 278 263
318 172 131 138 212 239 266 289 282 314 332 223 180 192 211 222 224 224 217 222 228 238 240 239 245 237 241 248 247 249 255 262 255 256 268 274 273 274 276 278 279 280 281
308 192 193 219 230 236 230 227 232 232 254 259 216 206 214 227 231 233 226 228 235 245 250 246 246 239 240 244 243 246 249 252 253 252 258 265 268 272 267 273 283 279 282
290 250 236 244 243 228 225 223 226 224 228 232 235 230 226 222 223 227 228 227 233 246 255 256 252 249 251 252 250 245 239 240 243 251 257 265 258 261 256 262 272 286 283
280 283 288 257 237 223 234 243 230 233 237 232 228 230 238 241 246 245 243 235 238 240 246 252 254 249 250 258 262 261 253 244 243 246 254 255 259 263 273 270 273 281 278
277 297 313 294 254 240 239 241 247 247 250 252 250 240 242 249 250 249 254 251 244 245 246 251 258 261 251 247 254 260 261 260 256 249 249 254 258 256 258 266 265 268 269
270 278 283 279 276 267 250 244 252 258 253 256 261 257 256 259 258 257 267 263 257 252 247 244 250 259 261 261 256 256 255 257 258 257 250 254 254 253 247 255 263 277 285
262 274 275 266 263 261 249 250 264 261 262 263 264 261 261 268 262 259 264 258 258 262 265 260 253 254 266 271 263 264 269 266 270 268 273 273 272 273 270 266 267 273 281
260 266 267 258 253 254 257 261 267 259 259 264 270 266 261 261 260 260 262 253 257 264 266 262 258 263 267 271 253 250 260 265 269 278 280 287 282 275 271 249 241 253 273
274 279 279 270 262 260 268 273 259 261 265 267 270 270 261 257 259 257 258 254 251 259 262 263 262 271 274 273 268 256 262 273 265 262 272 272 273 265 259 255 247 243 254
299 289 288 286 281 277 269 275 267 257 261 267 271 275 268 259 258 258 260 265 268 260 263 268 271 277 278 277 276 274 276 279 268 261 263 263 261 259 260 256 257 258 260
320 296 291 294 293 285 265 266 267 255 255 266 267 273 281 278 273 274 271 273 275 273 269 272 279 280 280 277 278 280 274 258 252 254 258 262 262 260 267 273 275 274 279
285 292 293 290 295 297 277 261 253 246 248 256 259 265 276 281 276 273 268 269 273 276 279 284 284 281 280 282 284 279 259 244 244 251 262 272 279 271 263 265 274 285 290
270 283 290 285 277 283 274 254 254 249 241 246 245 247 256 264 267 274 275 265 259 259 281 285 272 270 262 261 266 262 248 238 244 255 259 268 270 271 275 274 267 272 270
259 276 279 285 287 285 288 302 293 287 288 280 274 268 266 270 280 278 279 281 283 281 281 262 259 256 257 261 263 260 255 248 248 252 254 256 259 264 273 275 267 258 263
230 261 279 283 280 280 281 284 299 311 304 294 287 282 279 282 282 282 286 289 288 287 261 254 254 254 257 258 258 253 254 252 247 248 251 254 257 261 264 265 264 264 266
239 254 260 262 266 272 275 280 284 290 301 303 296 291 293 291 288 287 292 300 284 264 244 248 254 256 257 256 253 252 256 253 245 247 250 249 246 252 257 259 258 259 265
244 254 260 268 276 280 282 286 286 282 282 290 300 299 296 294 293 292 296 264 251 256 255 256 256 260 258 257 252 249 248 248 248 247 248 243 241 244 251 254 256 259 261
242 254 268 272 278 281 282 286 288 286 286 285 286 291 302 302 285 282 265 252 249 257 262 265 265 263 260 257 256 252 252 250 247 245 248 245 241 241 247 251 252 255 257
252 257 254 265 267 270 274 280 283 285 283 285 284 286 292 283 273 272 267 260 255 258 263 267 270 267 261 260 258 257 256 256 251 248 247 244 241 244 247 251 254 255 260
246 259 265 266 277 282 284 286 286 285 283 284 290 297 294 290 279 277 273 272 268 262 259 259 261 260 256 254 253 254 255 256 254 252 250 246 243 244 246 248 252 254 254
237 269 286 283 281 285 289 288 286 284 284 286 291 296 301 293 282 278 278 279 280 278 272 260 261 266 262 254 249 248 251 253 252 249 249 250 248 247 247 249 250 253 254
269 273 283 290 290 285 286 290 290 287 286 288 291 293 293 291 289 290 288 286 283 278 272 265 261 264 265 265 261 253 255 259 255 248 241 243 247 249 247 249 251 251 254
273 272 278 281 285 287 291 293 292 291 289 289 290 292 292 291 290 290 289 290 291 287 283 275 271 268 267 265 267 266 264 265 266 258 244 239 240 242 244 248 249 251 251
269 270 273 278 280 282 283 287 289 292 290 288 289 289 289 288 288 289 291 290 290 289 289 285 278 274 273 271 269 269 267 264 261 258 246 238 237 241 241 244 246 247 248